カタログに戻る

COSMOS 1375 DEB

運用中LEO
NORAD 18413·DEBRIS·🇷🇺 Russia

打ち上げ Jun 6, 1982 から Plesetsk Cosmodrome

Loading…

次のパス (今後24時間)

TLE

最新Source: Space-Track

元期: Sep 13, 2026, 17:14 UTC

1 18413U 82055BC  26256.71838373  .00000542  00000-0  67684-3 0  9993
2 18413  65.8219 119.5044 0068371 106.1281 319.6858 13.71676103 36686

AllMySatでCOSMOS 1375 DEBをリアルタイム追跡

Download on the App Store